Tracking 19795 objects as of 18-Jul-2019
HD Live streaming from Space Station
objects crossing your sky now

OPS 5805

Track OPS 5805 now!
OPS 5805 is classified as:


NORAD ID: 12093
Int'l Code: 1980-100A
Perigee: 2,064.7 km
Apogee: 38,323.9 km
Inclination: 63.1 °
Period: 718.2 minutes
Semi major axis: 26565 km
RCS: Unknown
Launch date: December 13, 1980
Source: United States (US)
Launch site: AIR FORCE WESTERN TEST RANGE (AFWTR)
aabbcc
Your satellite tracking list
Your tracking list is empty




NASA's NSSDC Master Catalog

Two Line Element Set (TLE):
1 12093U 80100A   19197.03605079 +.00000827 +00000-0 +00000-0 0  9998
2 12093 063.0701 122.7154 6824550 277.8370 015.6152 02.00507943001427
Source of the keplerian elements: AFSPC